[[{"header":{"parameterUnit":"m.s-1","parameterCategory":1,"la1":30.2991,"la2":30.254,"lo1":-89.0895,"lo2":-89.0444,"dy":0.0017,"dx":0.0017,"nx":28,"ny":28,"refTime":"2025-01-14T03:00:00:Z","depth":0,"parameterNumber":2,"parameterNumberName":"U-component_of_WINDS"},"data":[0,0,0,0,0,0,0,0,0,0,0,0,0,0,0,0,0,0,0,0,0,0,0,0,0,0,0,0,0,0,0,0,0,0,0,0,0,0,0,0,0,0,0,0,0,0,0,0,0,0,0,0,0,0,0,0,0,0,-1.6401,-1.6402,0,-1.6491,-1.6492,-1.6493,-1.6455,-1.6453,-1.6451,-1.6449,-1.6544,-1.6548,-1.6553,0,0,0,0,0,0,0,0,0,0,0,0,0,-1.6196,-1.62,-1.6401,-1.6402,-1.6403,-1.6491,-1.6492,-1.6494,-1.6456,-1.6453,-1.645,-1.6448,-1.6542,-1.6548,-1.6553,0,0,0,0,0,0,0,0,0,0,0,0,0,-1.6286,-1.6201,-1.6401,-1.6395,-1.6395,-1.6491,-1.6492,-1.6494,-1.6456,-1.6453,-1.645,-1.6446,-1.654,-1.6547,-1.6554,-1.6662,0,0,-1.6575,-1.6578,0,0,0,0,0,0,0,0,-1.6281,-1.6293,-1.6394,-1.6395,-1.6396,-1.6459,-1.6455,-1.655,-1.6457,-1.6433,-1.6449,-1.6445,-1.6518,-1.6527,-1.6551,-1.6666,-1.667,-1.6575,-1.6579,-1.6582,-1.6584,0,0,0,0,0,0,0,-1.6275,-1.6289,-1.6437,-1.6396,-1.6397,-1.6388,-1.6397,-1.6473,-1.6493,-1.6435,-1.6432,-1.6443,-1.6518,-1.6544,-1.6553,-1.6672,-1.6575,-1.6581,-1.6585,-1.6588,-1.6879,-1.6883,0,0,0,0,0,0,-1.6268,-1.6284,-1.6434,-1.6439,-1.6329,-1.6394,-1.6404,-1.6442,-1.6492,-1.6496,-1.6446,-1.6441,-1.6534,-1.6545,-1.6556,-1.6686,-1.6582,-1.6589,-1.6593,-1.6876,-1.688,-1.6884,0,0,0,0,0,0,-1.6264,-1.6282,-1.643,-1.6361,-1.6379,-1.6401,-1.6444,-1.6445,-1.6472,-1.65,-1.6504,-1.6469,-1.6532,-1.6546,-1.6635,-1.6689,-1.6592,-1.6598,-1.6872,-1.6877,-1.6882,-1.6947,0,0,0,0,0,0,-1.6258,-1.628,-1.6322,-1.6362,-1.6383,-1.6508,-1.6447,-1.6449,-1.6483,-1.6478,-1.6523,-1.6528,-1.6531,-1.6625,-1.6642,-1.6697,-1.6603,-1.6867,-1.6874,-1.688,-1.6941,-1.6954,-1.6966,0,0,0,0,0,-1.6251,-1.6337,-1.6324,-1.6342,-1.6435,-1.6511,-1.6523,-1.6524,-1.6488,-1.653,-1.6548,-1.6526,-1.668,-1.6635,-1.6654,-1.6711,-1.6864,-1.6872,-1.688,-1.6935,-1.6952,-1.6966,0,0,0,0,0,0,-1.6303,-1.6342,-1.6328,-1.643,-1.6467,-1.6505,-1.6558,-1.6542,-1.6592,-1.6585,-1.6584,-1.6595,-1.6687,-1.6707,-1.6657,-1.6817,-1.6766,-1.6778,-1.6801,-1.6818,-1.683,-1.6825,-1.6609,0,0,0,0,0,-1.6326,-1.6385,-1.6415,-1.6502,-1.6522,-1.6536,-1.657,-1.6567,-1.6606,-1.6622,-1.6647,-1.6686,-1.6743,-1.6781,-1.6835,-1.6942,-1.6952,-1.699,-1.7003,-1.7013,-1.7025,-1.7083,-1.7101,-1.6911,-1.6911,-1.6911,0,0,-1.6376,-1.6404,-1.6441,-1.6513,-1.6542,-1.6603,-1.655,-1.6617,-1.6662,-1.6632,-1.6719,-1.6738,-1.6781,-1.688,-1.6925,-1.69,-1.7079,-1.7024,-1.7032,-1.7038,-1.7094,-1.7112,-1.7128,-1.6917,-1.6916,-1.6915,0,0,-1.6496,-1.6523,-1.6599,-1.6628,-1.6672,-1.668,-1.6698,-1.6738,-1.6749,-1.6835,-1.6814,-1.6867,-1.6965,-1.6997,-1.7027,-1.7157,-1.714,-1.7174,-1.7242,-1.7299,-1.7314,-1.7328,-1.7376,-1.7393,-1.7185,-1.7185,-1.7185,0,-1.6553,-1.6643,-1.6639,-1.6708,-1.6741,-1.6714,-1.6791,-1.682,-1.6879,-1.6903,-1.6873,-1.6995,-1.7023,-1.7129,-1.7161,-1.7184,-1.7206,-1.7171,-1.7312,-1.7326,-1.7338,-1.7384,-1.7401,-1.7189,-1.7189,-1.7189,-1.7188,0,-1.671,-1.6773,-1.6828,-1.6886,-1.6924,-1.6996,-1.7004,-1.7043,-1.7036,-1.7048,-1.7136,-1.7167,-1.7227,-1.7251,-1.7246,-1.7357,-1.734,-1.7311,-1.726,-1.736,-1.7403,-1.7421,-1.7195,-1.7194,-1.7193,-1.7192,0,0,-1.687,-1.6922,-1.6943,-1.6968,-1.7013,-1.7062,-1.7133,-1.719,-1.7225,-1.7265,-1.7325,-1.7408,-1.7381,-1.7414,-1.7411,-1.7461,-1.7564,-1.7426,-1.7427,-1.7452,-1.7689,-1.7711,-1.7732,-1.7551,-1.7554,-1.7556,-1.7685,0,-1.6995,-1.7119,-1.7117,-1.7232,-1.729,-1.7265,-1.7326,-1.736,-1.7373,-1.7424,-1.7437,-1.7497,-1.7456,-1.7476,-1.7524,-1.7541,-1.7611,-1.7531,-1.7608,-1.761,-1.76,-1.7754,-1.7779,-1.7899,-1.7702,-1.7705,-1.7707,0,-1.716,-1.7205,-1.7326,-1.7361,-1.7386,-1.7441,-1.7493,-1.7542,-1.758,-1.7586,-1.7621,-1.761,-1.7682,-1.7626,-1.7725,-1.7671,-1.7701,-1.7714,-1.7719,-1.7728,-1.7667,-1.777,-1.7937,-1.7956,-1.7733,-1.7731,-1.7729,0,-1.7266,-1.7357,-1.7441,-1.7463,-1.7507,-1.7546,-1.7566,-1.7601,-1.7635,-1.7681,-1.7703,-1.7756,-1.7786,-1.7827,-1.7831,-1.779,-1.7931,-1.7876,-1.7939,-1.7939,-1.7972,-1.7971,-1.815,-1.7988,-1.7988,-1.7987,-1.7987,0,-1.7409,-1.7484,-1.749,-1.7542,-1.7625,-1.7621,-1.7703,-1.772,-1.775,-1.7805,-1.7785,-1.7837,-1.7838,-1.789,-1.7893,-1.7975,-1.7988,-1.7995,-1.7996,-1.7999,-1.7998,-1.8021,-1.8014,-1.7992,-1.7991,-1.799,-1.7989,0,-1.7543,-1.755,-1.764,-1.7673,-1.7683,-1.7743,-1.7771,-1.7821,-1.7829,-1.7899,-1.7915,-1.793,-1.7991,-1.7998,-1.8069,-1.807,-1.817,-1.816,-1.8158,-1.8157,-1.822,-1.8215,-1.8422,-1.845,-1.8268,-1.827,-1.8271,0,-1.7635,-1.7692,-1.773,-1.7765,-1.7787,-1.7844,-1.7878,-1.7876,-1.7913,-1.7959,-1.8003,-1.8062,-1.8109,-1.8208,-1.8225,-1.8279,-1.8272,-1.8341,-1.828,-1.8281,-1.8276,-1.8273,-1.8279,-1.8354,-1.8356,-1.8357,-1.8359,0,-1.7798,-1.7798,-1.7848,-1.79,-1.7941,-1.7982,-1.802,-1.8049,-1.8051,-1.8094,-1.8156,-1.8192,-1.8264,-1.8323,-1.8375,-1.8396,-1.8379,-1.8377,-1.8395,-1.84,-1.8396,-1.8401,-1.8192,-1.8373,-1.8372,-1.837,-1.837,-1.8369,-1.7915,-1.7965,-1.7999,-1.8056,-1.8084,-1.8119,-1.8167,-1.8181,-1.8233,-1.8291,-1.8285,-1.8354,-1.8389,-1.8458,-1.8482,-1.8536,-1.8513,-1.8539,-1.8545,-1.8552,-1.856,-1.8385,-1.8545,-1.8545,-1.8544,-1.8544,-1.8544,0,-1.8079,-1.8099,-1.8151,-1.8204,-1.8248,-1.8225,-1.8266,-1.8305,-1.8365,-1.8399,-1.8445,-1.8516,-1.8572,-1.8593,-1.8648,-1.8686,-1.868,-1.8701,-1.87,-1.8705,-1.8576,-1.8556,-1.8706,-1.8706,-1.8706,-1.8706,-1.8706,-1.8706,-1.8169,-1.8252,-1.8256,-1.8351,-1.8371,-1.8438,-1.8463,-1.8495,-1.8522,-1.8602,-1.8648,-1.8661,-1.8689,-1.8746,-1.8797,-1.8801,-1.8823,-1.8849,-1.885,-1.873,-1.8714,-1.8699,-1.868,-1.8853,-1.8853,-1.8975,-1.8976,-1.8977]},{"header":{"parameterUnit":"m.s-1","parameterCategory":1,"la1":30.2991,"la2":30.254,"lo1":-89.0895,"lo2":-89.0444,"dy":0.0017,"dx":0.0017,"nx":28,"ny":28,"refTime":"2025-01-14T03:00:00:Z","depth":0,"parameterNumber":3,"parameterNumberName":"V-component_of_WINDS"},"data":[0,0,0,0,0,0,0,0,0,0,0,0,0,0,0,0,0,0,0,0,0,0,0,0,0,0,0,0,0,0,0,0,0,0,0,0,0,0,0,0,0,0,0,0,0,0,0,0,0,0,0,0,0,0,0,0,0,0,-5.6297,-5.6298,0,-5.6425,-5.6427,-5.6428,-5.6354,-5.635,-5.6347,-5.6343,-5.6472,-5.6478,-5.6485,0,0,0,0,0,0,0,0,0,0,0,0,0,-5.5983,-5.5989,-5.6296,-5.6298,-5.63,-5.6425,-5.6427,-5.6428,-5.6355,-5.635,-5.6346,-5.6342,-5.6469,-5.6477,-5.6485,0,0,0,0,0,0,0,0,0,0,0,0,0,-5.6116,-5.5991,-5.6296,-5.6278,-5.6278,-5.6425,-5.6427,-5.6429,-5.6356,-5.635,-5.6345,-5.634,-5.6467,-5.6477,-5.6487,-5.6657,0,0,-5.6518,-5.6522,0,0,0,0,0,0,0,0,-5.6109,-5.6128,-5.6279,-5.628,-5.6279,-5.6368,-5.6363,-5.6505,-5.6357,-5.6326,-5.6343,-5.6337,-5.6441,-5.6453,-5.6489,-5.6663,-5.6669,-5.6518,-5.6525,-5.6529,-5.6532,0,0,0,0,0,0,0,-5.61,-5.6122,-5.6347,-5.6281,-5.6282,-5.6262,-5.6275,-5.639,-5.6412,-5.6328,-5.6323,-5.634,-5.644,-5.6479,-5.6491,-5.6671,-5.6518,-5.6527,-5.6534,-5.6537,-5.6991,-5.6996,0,0,0,0,0,0,-5.6092,-5.6115,-5.6343,-5.6351,-5.6179,-5.6272,-5.6287,-5.6345,-5.6411,-5.6416,-5.6344,-5.6336,-5.6465,-5.648,-5.6496,-5.67,-5.6529,-5.6538,-5.6544,-5.6985,-5.6992,-5.6998,0,0,0,0,0,0,-5.6086,-5.6113,-5.6338,-5.6232,-5.6259,-5.6283,-5.635,-5.635,-5.639,-5.6423,-5.6426,-5.638,-5.6461,-5.6481,-5.6618,-5.6703,-5.6543,-5.6552,-5.6978,-5.6987,-5.6995,-5.711,0,0,0,0,0,0,-5.6077,-5.6111,-5.6178,-5.6234,-5.6265,-5.646,-5.6355,-5.6357,-5.6408,-5.6398,-5.6458,-5.6462,-5.6458,-5.6603,-5.6628,-5.6714,-5.656,-5.697,-5.6982,-5.6992,-5.7099,-5.7122,-5.7142,0,0,0,0,0,-5.6066,-5.6204,-5.6181,-5.6209,-5.6348,-5.6465,-5.6482,-5.6476,-5.6415,-5.6481,-5.6502,-5.646,-5.669,-5.6618,-5.6645,-5.6736,-5.6965,-5.6979,-5.6992,-5.7089,-5.7117,-5.7141,0,0,0,0,0,0,-5.6157,-5.6211,-5.6187,-5.6347,-5.6402,-5.6452,-5.6536,-5.6506,-5.6579,-5.6566,-5.6554,-5.6568,-5.671,-5.6736,-5.6655,-5.6904,-5.6817,-5.6837,-5.6882,-5.6909,-5.693,-5.6921,-5.6569,0,0,0,0,0,-5.6196,-5.6287,-5.6329,-5.6467,-5.6496,-5.6511,-5.6562,-5.6552,-5.6608,-5.663,-5.6661,-5.6716,-5.68,-5.6856,-5.6935,-5.7102,-5.7113,-5.7177,-5.7199,-5.7216,-5.7233,-5.7323,-5.7351,-5.7042,-5.7042,-5.7042,0,0,-5.6277,-5.6318,-5.6376,-5.6486,-5.6527,-5.6621,-5.6531,-5.6634,-5.6703,-5.6645,-5.6777,-5.6801,-5.6861,-5.7013,-5.7082,-5.7039,-5.7321,-5.7233,-5.7247,-5.7255,-5.7339,-5.7369,-5.7395,-5.7051,-5.705,-5.7048,0,0,-5.6472,-5.6513,-5.6632,-5.6675,-5.6739,-5.6748,-5.6777,-5.6832,-5.6846,-5.6978,-5.6936,-5.7017,-5.7163,-5.7207,-5.7249,-5.746,-5.7424,-5.7486,-5.7598,-5.7685,-5.771,-5.7731,-5.7806,-5.7834,-5.7503,-5.7503,-5.7503,0,-5.6565,-5.6706,-5.6697,-5.6803,-5.6852,-5.6805,-5.6925,-5.6967,-5.7053,-5.7088,-5.7039,-5.722,-5.7257,-5.7419,-5.747,-5.7506,-5.7537,-5.748,-5.7707,-5.7728,-5.7748,-5.782,-5.7848,-5.751,-5.7509,-5.7509,-5.7508,0,-5.6816,-5.6914,-5.7002,-5.7088,-5.7147,-5.726,-5.7266,-5.7327,-5.7311,-5.7325,-5.7459,-5.7502,-5.7589,-5.7626,-5.7612,-5.7786,-5.7757,-5.7708,-5.7621,-5.7785,-5.7852,-5.788,-5.752,-5.7518,-5.7516,-5.7514,0,0,-5.7074,-5.7153,-5.7185,-5.7223,-5.729,-5.7365,-5.7474,-5.7561,-5.7613,-5.7673,-5.7764,-5.7888,-5.7843,-5.789,-5.788,-5.7956,-5.8121,-5.7898,-5.7899,-5.7938,-5.8314,-5.8352,-5.8384,-5.8097,-5.8102,-5.8106,-5.8309,0,-5.7274,-5.7468,-5.7462,-5.7641,-5.7731,-5.7687,-5.7782,-5.7833,-5.7848,-5.7926,-5.7941,-5.803,-5.7964,-5.7992,-5.8065,-5.8085,-5.8196,-5.807,-5.8181,-5.8185,-5.8168,-5.8419,-5.8459,-5.8648,-5.8336,-5.834,-5.8343,0,-5.7534,-5.7604,-5.7793,-5.7846,-5.7884,-5.797,-5.8048,-5.8123,-5.8178,-5.8184,-5.8237,-5.8214,-5.8323,-5.8233,-5.8383,-5.8297,-5.8342,-5.8358,-5.8365,-5.8376,-5.8275,-5.8436,-5.8709,-5.8738,-5.8384,-5.8381,-5.8378,0,-5.7703,-5.7845,-5.7976,-5.801,-5.8075,-5.8137,-5.8166,-5.8216,-5.8268,-5.8336,-5.8369,-5.8448,-5.8491,-5.8552,-5.8551,-5.8485,-5.8703,-5.8612,-5.871,-5.871,-5.8759,-5.8756,-5.9043,-5.8786,-5.8786,-5.8785,-5.8785,0,-5.7928,-5.8045,-5.8053,-5.8134,-5.8264,-5.8255,-5.8383,-5.8406,-5.8451,-5.8535,-5.85,-5.8579,-5.8572,-5.8651,-5.8651,-5.8775,-5.8795,-5.8801,-5.88,-5.8805,-5.8805,-5.8835,-5.8822,-5.8793,-5.8791,-5.879,-5.8789,0,-5.814,-5.815,-5.829,-5.834,-5.8355,-5.8449,-5.849,-5.8566,-5.8578,-5.8684,-5.8708,-5.8727,-5.8818,-5.8823,-5.8927,-5.8927,-5.9078,-5.9062,-5.906,-5.9057,-5.9155,-5.9146,-5.9472,-5.9514,-5.923,-5.9233,-5.9235,0,-5.8283,-5.8372,-5.8432,-5.8486,-5.852,-5.8607,-5.866,-5.8654,-5.871,-5.878,-5.8847,-5.8935,-5.9006,-5.9153,-5.9175,-5.9254,-5.924,-5.9348,-5.9251,-5.9254,-5.9242,-5.9237,-5.9245,-5.9367,-5.9371,-5.9373,-5.9375,0,-5.8536,-5.8537,-5.8615,-5.8696,-5.876,-5.8822,-5.888,-5.8926,-5.8927,-5.8992,-5.9085,-5.914,-5.9247,-5.9334,-5.9412,-5.944,-5.9408,-5.9405,-5.9432,-5.9439,-5.9435,-5.9439,-5.9112,-5.9398,-5.9396,-5.9394,-5.9393,-5.9392,-5.8718,-5.8795,-5.885,-5.8938,-5.8981,-5.9036,-5.911,-5.9131,-5.921,-5.9297,-5.9288,-5.9392,-5.9443,-5.9544,-5.9579,-5.9659,-5.9621,-5.966,-5.967,-5.968,-5.9691,-5.9421,-5.9672,-5.9672,-5.9671,-5.9671,-5.967,0,-5.897,-5.9002,-5.9083,-5.9166,-5.9235,-5.92,-5.9262,-5.9322,-5.9414,-5.9465,-5.9535,-5.9642,-5.9727,-5.9755,-5.9836,-5.9895,-5.9882,-5.9916,-5.9912,-5.9919,-5.9719,-5.9688,-5.9925,-5.9925,-5.9925,-5.9925,-5.9925,-5.9925,-5.9109,-5.9238,-5.9244,-5.9394,-5.9425,-5.9527,-5.9566,-5.9616,-5.9657,-5.9778,-5.9849,-5.9867,-5.9908,-5.9993,-6.0068,-6.0074,-6.0105,-6.0146,-6.0146,-5.9959,-5.9933,-5.9909,-5.988,-6.0153,-6.0153,-6.0339,-6.0341,-6.0342]}]]